Location: Newark
(43.4306°N, 0.3089°E)
Time: 06:31:59
(UTC+00:00)

A-11 Canister half - Pass Details

Date: 01 September 2019
Orbit: 1514 x 1686 km, 47.2° (Epoch: 15 September)

Event Time Altitude Azimuth Distance (km) Brightness Sun altitude
Rises 22:30:20 0° 294° (WNW) 4,769 12.2 -34.7°
Reaches altitude 10° 22:33:48 10° 285° (WNW) 3,807 11.5 -35.0°
Enters shadow 22:41:12 31° 235° (SW) 2,551 10.0 -35.5°
